Overview Statistics Trail Chart Weather Telemetry Raw packets
 

This is the latest recevied weather packets stored in our database for station/object KB4MOX. If no packets are shown the sender has not sent any weather packets the latest 10 day(s).

<< 34 35 36 37 38 39 40 >>
Time Temp. Humidity Pressure Rain* Wind** Luminosity Snow
1788384415 36.67° C 43% 1016.8 hPa 0 mm - 328 W/m² -
1788384112 36.11° C 43% 1016.7 hPa 0 mm - 351 W/m² -
1788383808 35.56° C 45% 1016.8 hPa 0 mm - 360 W/m² -
1788383508 35.56° C 45% 1016.9 hPa 0 mm - 177 W/m² -
1788383208 36.11° C 43% 1017 hPa 0 mm - 304 W/m² -
1788382903 37.22° C 41% 1016.9 hPa 0 mm - 387 W/m² -
1788382601 36.67° C 42% 1016.8 hPa 0 mm - 443 W/m² -
1788382297 36.11° C 41% 1017.1 hPa 0 mm - 462 W/m² -
1788381991 36.11° C 43% 1017.1 hPa 0 mm - 428 W/m² -
1788381686 35.56° C 43% 1017.2 hPa 0 mm - 482 W/m² -
1788381382 35.56° C 44% 1017.2 hPa 0 mm - 508 W/m² -
1788381081 35.56° C 44% 1017.1 hPa 0 mm - 321 W/m² -
1788380797 35.56° C 45% 1017.3 hPa 0 mm - 334 W/m² -
1788380474 35.56° C 45% 1017.2 hPa 0 mm - 238 W/m² -
1788380169 35.56° C 44% 1017.2 hPa 0 mm - 208 W/m² -
1788379868 36.11° C 44% 1017.2 hPa 0 mm - 240 W/m² -
1788379564 36.67° C 45% 1017.3 hPa 0 mm - 571 W/m² -
1788379259 36.11° C 46% 1017.5 hPa 0 mm - 505 W/m² -
1788378955 36.11° C 46% 1017.4 hPa 0 mm - 606 W/m² -
1788378654 36.67° C 44% 1017.3 hPa 0 mm - 445 W/m² -
1788378353 35.56° C 44% 1017.5 hPa 0 mm - 632 W/m² -
1788378049 35.56° C 45% 1017.6 hPa 0 mm - 662 W/m² -
1788377745 36.11° C 44% 1017.8 hPa 0 mm - 566 W/m² -
1788377444 35.56° C 46% 1017.9 hPa 0 mm - 542 W/m² -
1788377143 35° C 48% 1017.9 hPa 0 mm - 440 W/m² -

* Rain latest hour (hover to see other rain measurements)
** Current wind speed in m/s (hover to see current wind gust speed)